EXPRESS AM-5

基本信息
目录编号:
39487
目录名称:
EXPRESS AM-5
国际标识:
2013-077A
轨道中心:
EARTH
卫星名称:
EXPRESS AM-5
卫星全名:
--
卫星状态:
在轨 (已飞行4450 天)
发射日期:
2013-12-26 UTC
国别 :
俄罗斯(独联体) (CIS)
星等 :
--
轨道信息
数据来源 国际轨道数据 AOE轨道数据
星历时间 2026-03-03T15:53:48+0800
6小时前
查看轨道信息
2026-03-02T20:00:00+0800
1天前
查看轨道信息
半长轴 42165.429km 42164.756km
偏心率 0.0002444 0.0002496
轨道倾角 0.023° 0.022°
近地点辐角 174.557° 175.526°
升交点赤经 155.060° 149.094°
平近点角 89.974° 155.700°
近地点 35776.986km 35776.094km
远地点 35797.598km 35797.144km
周期 1436.132分钟 1436.098分钟
每日圈数 1.002693 1.002717
详细信息
使用方式:
暂无
2D轨道图
3D轨道图
轨道高度分析图
轨道倾角分析图
轨道综合分析图
查看轨道综合分析图